    Observer details:
    381 Tokyo-Kiso.  Observers J. Beniyama, S. Shigeyuki, R. Ohsawa, T. Morokuma.  
        1.05-m f/3.1 Schmidt + CCD.
    718 Tooele.  Observer P. Wiggins.  0.35-m f/5.5 Schmidt-Cassegrain + CCD.
    C42 Xingming Observatory, Mt. Nanshan.  Observers X. Gao, H.-J. Tan.  Measurer 
       H.-J. Tan.  0.6-m f/8 Ritchey-Chretien + CCD.
    C95 SATINO Remote Observatory, Haute Provence.  Observer J. Jahn.  0.60-m f/3.2 
       Newtonian reflector + CCD.
    J69 North Observatory, Clanfield.  Observer D. Briggs.  0.41-m f/4.5 Newtonian 
       reflector + CCD.
    J95 Great Shefford.  Observer P. Birtwhistle.  0.41-m f/6.3 Schmidt-Cassegrain 
       + CCD.
    K61 Rokycany Observatory.  Observer M. Adamovsky.  0.51-m f/6.8 reflector + CCD.
    L01 Visnjan Observatory, Tican.  Observer K. Korlevic.  1.0-m f/2.9 reflector + 
       CCD.
    L04 ROASTERR-1 Observatory, Cluj-Napoca.  Observer L. Hudin.  0.3-m f/5 
       reflector + CCD.
    P93 Space Tracking and Communications Center, JAXA.  Observers K. Nishiyama, T. 
       Nimura, M. Hagino.  0.5-m f/2.0 reflector + CCD.
    Q62 iTelescope Observatory, Siding Spring.  Observer H. Sato.  0.51-m f/6.8 
       astrograph + CCD + f/4.5 focal reducer.
    R57 Aorangi Iti Observatory, Lake Tekapo.  Observers A. C. Gilmore, P. M. 
       Kilmartin.  Measurer P. M. Kilmartin.  0.35-m f/11 Schmidt-Cassegrain + CCD.
    Y00 SONEAR Observatory, Oliveira.  Observers C. Jacques, E. Pimentel, J. 
       Barros.  Measurer C. Jacques.  0.28-m f/2.2 astrograph + CCD.
    Z80 Northolt Branch Observatory.  Observer G. Wells.  0.25-m f/8.0 
       Ritchey-Chretien + CCD.
    
    Orbital elements:
    2020 EO                                                  Earth MOID = 0.0041 AU
    Epoch 2020 May 31.0 TT = JDT 2459000.5                  Bell
    M  70.41014              (2000.0)            P               Q
    n   0.66556143     Peri.  149.70926     -0.78968287     -0.61329890
    a   1.2992038      Node   352.39921     +0.53528342     -0.67576840
    e   0.2521041      Incl.    7.07518     +0.29978762     -0.40890284
    P   1.48           H   25.9           G   0.15           U   5
    Residuals in seconds of arc
    200312 381  0.1-  0.7+    200312 J95  0.2-  0.3+    200313 718  0.4+  0.3-
    200312 381  0.3+  0.2-    200312 C95  0.2-  0.3-    200313 718  0.0   0.6+
    200312 381  0.0   0.8-    200312 C95  0.2+  0.6-    200313 718  0.0   1.1+
    200312 381  0.1-  0.1-    200312 C95  0.0   0.4-    200313 718  0.1-  0.3+
    200312 381  0.3+  0.1+    200312 C95  0.2+  0.6-    200313 718  0.4+  0.7-
    200312 381  0.6-  0.6+    200312 C95  0.2+  0.5-    200313 718  0.1+  0.6+
    200312 381  0.2+  1.1-    200312 J69  0.4-  0.2-    200313 R57  0.4-  0.1+
    200312 381  0.2-  0.2-    200312 C95  0.3+  0.8-    200313 R57  0.5-  0.2+
    200312 381  0.0   0.1-    200312 J69  0.3-  0.4+    200313 R57  0.1-  0.2+
    200312 381  0.6+  0.3-    200312 C95  0.2+  0.7-    200313 R57  0.4-  0.1+
    200312 P93  0.6+  1.3+    200312 J69  0.1-  0.0     200313 R57  0.5-  0.2+
    200312 P93  0.3+  1.4+    200312 C95  0.1+  0.9-    200313 Q62  0.1-  0.5-
    200312 P93  0.5+  0.6+    200312 C95  0.0   0.7-    200313 Q62  0.2-  0.1-
    200312 P93  0.3+  0.7+    200312 J69  0.2-  0.0     200313 Q62  0.2-  0.3+
    200312 P93  0.4+  0.8+    200312 C95  0.4+  0.1-    200313 C42  0.6-  1.0+
    200312 L04  0.2+  0.5-    200312 J69  0.2-  0.1-    200313 C42  0.2-  0.3-
    200312 L04  0.0   0.4-    200312 J69  0.3-  0.1-    200313 C42  0.2-  0.5-
    200312 L04  0.3+  0.7-    200312 J69  0.3-  0.2+    200313 C42  0.3-  0.2-
    200312 L04  0.3+  0.8-    200312 J69  0.1-  0.4+    200313 C42  0.8-  0.4+
    200312 L04  0.1-  0.3-    200312 L04  0.1+  0.3-    200313 C42  0.5+  0.6-
    200312 L04  0.3+  0.9-    200312 L04  0.2+  0.2-    200313 C42  0.8+  1.0-
    200312 L04  0.2+  0.4-    200312 L04  0.0   0.0     200313 C42  0.5+  0.3-
    200312 L01  0.3-  0.2-    200312 Z80  0.3+  0.3-    200313 C42  0.2-  0.4-
    200312 L01  0.3-  0.1+    200312 Z80  0.1+  0.4+    200313 C42  0.0   0.2+
    200312 L01  0.3-  0.1+    200312 Z80  0.1-  0.2-    200313 K61  0.0   0.2+
    200312 L01  0.1-  0.3+    200312 Z80  0.3+  0.8-    200313 K61  0.4+  0.0
    200312 L01  0.2-  0.0     200312 Y00  0.2+  0.3+    200313 K61  0.3+  0.5+
    200312 L01  0.1-  0.1+    200312 Y00  0.1-  0.9+    200313 K61  0.4+  0.0
    200312 L01  0.1-  0.2-    200312 Y00  0.0   0.2+    200313 K61  0.1-  0.1-
    200312 L01  0.2-  0.1-    200313 718  0.2+  0.4-    200313 K61  0.2+  0.5+
    200312 J95  0.3-  0.1+    200313 718  0.4+  0.3-    200313 K61  0.4+  0.3+
    200312 J95  0.0   0.2+    200313 718  0.5+  1.1-    200313 K61  0.2+  0.0
    200312 J95  0.1-  0.4+    200313 718 (0.9-  1.8+)
    
    Ephemeris:
    2020 EO                  a,e,i = 1.30, 0.25, 7                   q = 0.9717
    Date    TT    R. A. (2000) Decl.     Delta      r    Elong.  Phase     V
    2020 02 12    00 31 55.9 +52 57 44   0.09574 0.9691    76.5    97.9    24.3
    ...
    2020 02 27    00 58 40.3 +56 37 31   0.04907 0.9757    71.5   105.7    23.2
    ...
    2020 03 06    01 57 17.3 +61 17 59   0.02332 0.9861    74.6   104.1    21.5
    ...
    2020 03 12    07 58 07.8 +43 30 10   0.0067350.9969   118.6    61.1    17.2
    2020 03 13    09 11 02.4 +18 09 42   0.0062930.9989   142.1    37.7    16.4
    2020 03 14    09 58 21.5 -05 31 01   0.0074931.0009   154.2    25.6    16.4
    ...
    2020 03 20    11 32 05.1 -42 00 52   0.02498 1.0144   137.4    41.6    19.5
    ...
    2020 03 28    11 58 40.5 -47 05 05   0.05146 1.0354   135.4    42.6    21.2
    ...
    2020 04 12    12 15 42.7 -46 56 51   0.1034  1.0827   139.2    37.3    22.6
    
    A. U. Tomatic                (C) Copyright 2020 MPC           M.P.E.C. 2020-E46
    


    Read MPEC 2020-E45 Read MPEC 2020-E47


    MPEC number:

    Enter an MPEC number in one of the following forms:

    • 1997-B01 (the full form)
    • J97B01 (the packed version of the full form)
    • B01 (the abbreviated form)